This demonstration page uses our WeatherBlox Daily Observations layout. Learn more.

Left ArrowRight Arrow

Hourly Observations for January 1, 2022

Temp ( °F °C ) Dew Point ( °F °C ) Humidity (%) Winds ( mph kmh ) Pressure ( in mb ) Visibility ( mi km ) Precip ( " mm )
12:51 am 00:51 Cloudy 45 7.2 42 5.6 90 90 Calm 29.66 1005 10 16 0.00 0.00
1:51 am 01:51 Cloudy 44 6.7 43 6.1 96 96 E 7 11 29.67 1005 10 16 0.03 0.76
2:25 am 02:25 Cloudy 45 7.2 43 6.1 93 93 E 7 11 29.75 1007 10 16 0.00 0.00
2:51 am 02:51 Cloudy with Light Rain 45 7.2 43 6.1 93 93 ENE 6 9 29.67 1005 10 16 0.00 0.00
3:03 am 03:03 Cloudy 45 7.2 43 6.1 93 93 ENE 6 9 29.75 1007 10 16 0.00 0.00
3:51 am 03:51 Mostly Cloudy 43 6.1 43 6.1 100 100 E 7 11 29.66 1004 10 16 0.00 0.00
4:51 am 04:51 Cloudy with Light Rain 44 6.7 44 6.7 100 100 NNW 7 11 29.67 1005 8 13 0.00 0.00
5:51 am 05:51 Cloudy 43 6.1 42 5.6 97 97 N 9 15 29.67 1005 10 16 0.02 0.51
6:51 am 06:51 Cloudy with Rain 43 6.1 41 5 93 93 W 28 44 29.71 1006 6 10 0.03 0.76
7:32 am 07:32 Cloudy with Rain 41 5 39 3.9 93 93 WNW 24 39 29.83 1010 4 6 0.10 2.54
7:51 am 07:51 Mostly Cloudy with Light Rain 40 4.4 39 3.9 97 97 WNW 16 26 29.76 1008 10 16 0.16 4.06
8:51 am 08:51 Cloudy with Light Rain 41 5 40 4.4 96 96 WNW 15 24 29.80 1009 10 16 0.02 0.51
9:51 am 09:51 Cloudy 44 6.7 41 5 89 89 NW 16 26 29.83 1010 10 16 0.00 0.00
10:51 am 10:51 Mostly Cloudy 47 8.3 36 2.2 66 66 WNW 23 37 29.84 1011 10 16 0.00 0.00
11:51 am 11:51 Mostly Cloudy 47 8.3 33 0.6 59 59 WNW 26 43 29.86 1011 10 16 0.00 0.00
12:51 pm 12:51 Partly Cloudy 47 8.3 27 -2.8 46 46 WNW 30 48 29.86 1011 10 16 0.00 0.00
1:51 pm 13:51 Mostly Sunny 47 8.3 27 -2.8 46 46 WNW 31 50 29.89 1012 10 16 0.00 0.00
2:51 pm 14:51 Cloudy 47 8.3 24 -4.4 41 41 W 32 52 29.92 1013 10 16 0.00 0.00
3:51 pm 15:51 Cloudy 47 8.3 26 -3.3 44 44 W 23 37 29.97 1015 10 16 0.00 0.00
4:51 pm 16:51 Mostly Cloudy 45 7.2 26 -3.3 48 48 WNW 21 33 30.01 1016 10 16 0.00 0.00
5:51 pm 17:51 Mostly Clear 42 5.6 27 -2.8 55 55 WNW 14 22 30.07 1018 10 16 0.00 0.00
6:51 pm 18:51 Mostly Clear 41 5 26 -3.3 55 55 NW 13 20 30.13 1020 10 16 0.00 0.00
7:51 pm 19:51 Clear 35 1.7 26 -3.3 70 70 WNW 5 7 30.19 1022 10 16 0.00 0.00
8:51 pm 20:51 Clear 36 2.2 22 -5.6 57 57 WNW 10 17 30.21 1023 10 16 0.00 0.00
9:51 pm 21:51 Clear 33 0.6 16 -8.9 49 49 NW 6 9 30.25 1024 10 16 0.00 0.00
10:51 pm 22:51 Clear 31 -0.6 18 -7.8 59 59 W 7 11 30.29 1026 10 16 0.00 0.00
11:51 pm 23:51 Clear 30 -1.1 19 -7.2 64 64 N 6 9 30.32 1027 10 16 0.00 0.00

Powered by AerisWeather